Time_in_sec,Latitude,Longitude,Altitude,Nbsat_max_qualitysignal,Nbsat_locked,valid_data
1323443208.40547752,47.37539673,8.55001450,488.50601196,1,8,1
1323443397.55261970,47.37540436,8.55007076,495.50170898,6,10,1
1323443397.60563684,47.37540436,8.55006981,495.52279663,6,10,1
1323443397.65350747,47.37540436,8.55006981,495.54388428,6,10,1
1323443397.70483375,47.37540436,8.55006981,495.56494141,6,10,1
1323443397.75749588,47.37540436,8.55006886,495.62173462,6,10,1
1323443397.80490541,47.37540436,8.55006886,495.64282227,6,10,1
1323443397.85258818,47.37540436,8.55006886,495.66394043,6,10,1
1323443397.90552783,47.37540436,8.55006886,495.68499756,6,10,1
1323443397.95255280,47.37540436,8.55006886,495.70602417,6,10,1
1323443398.00554848,47.37540436,8.55006695,495.76022339,6,10,1
1323443398.05254388,47.37540436,8.55006695,495.78128052,6,10,1
1323443398.10462356,47.37540054,8.55006695,495.80233765,6,10,1
1323443398.15349150,47.37540054,8.55006695,495.82336426,6,10,1
1323443398.20565462,47.37540054,8.55006695,495.84436035,6,10,1
1323443398.25365448,47.37540054,8.55006599,495.89294434,6,10,1
1323443398.30551720,47.37540054,8.55006599,495.91397095,6,10,1
1323443398.35253358,47.37540054,8.55006599,495.93496704,6,10,1
1323443398.40557647,47.37540054,8.55006599,495.95593262,6,10,1
1323443398.45263648,47.37540054,8.55006504,495.97689819,6,10,1
1323443398.50552487,47.37540054,8.55006409,496.03024292,6,10,1
1323443398.55358315,47.37540054,8.55006409,496.05123901,6,10,1
1323443398.60463119,47.37540054,8.55006409,496.07220459,6,10,1
1323443398.65264273,47.37540054,8.55006409,496.09313965,6,10,1
1323443398.70450258,47.37540054,8.55006409,496.11407471,6,10,1
1323443398.75256467,47.37540054,8.55006313,496.17007446,6,10,1
1323443398.80550528,47.37540054,8.55006313,496.19104004,6,10,1
1323443398.85249376,47.37540054,8.55006218,496.21200562,6,10,1
1323443398.90537095,47.37540054,8.55006218,496.23291016,6,10,1
1323443398.95350695,47.37540054,8.55006218,496.25384521,6,9,1
1323443399.00551653,47.37540054,8.55006123,496.31378174,6,9,1
1323443399.05660248,47.37540054,8.55006123,496.33474731,6,9,1
1323443399.10538268,47.37540054,8.55006123,496.35568237,6,9,1
1323443399.15256834,47.37540054,8.55006123,496.37658691,6,9,1
1323443399.20551705,47.37540054,8.55006123,496.39749146,6,9,1
1323443399.25390172,47.37539673,8.55005932,496.45584106,6,9,1
1323443399.30454826,47.37539673,8.55005932,496.47674561,6,9,1
1323443399.35355234,47.37539673,8.55005932,496.49765015,6,9,1
1323443399.40536380,47.37539673,8.55005932,496.51855469,6,9,1
1323443399.45262647,47.37539673,8.55005932,496.53939819,6,9,1
1323443399.50554562,47.37539673,8.55005836,496.60482788,6,9,1
1323443399.55264568,47.37539673,8.55005836,496.62576294,6,9,1
1323443399.60548782,47.37539673,8.55005836,496.64669800,6,9,1
1323443399.65351510,47.37539673,8.55005836,496.66760254,6,9,1
1323443399.70468211,47.37539673,8.55005836,496.68844604,6,9,1
1323443399.75374126,47.37539673,8.55005646,496.75811768,6,9,1
1323443399.80601311,47.37539673,8.55005646,496.77911377,6,9,1
1323443399.85328126,47.37539673,8.55005646,496.80004883,6,9,1
1323443399.90491438,47.37539673,8.55005646,496.82101440,6,9,1
1323443399.95302200,47.37539673,8.55005646,496.84191895,6,9,1
1323443400.00872183,47.37539673,8.55005550,496.87316895,6,9,1
1323443400.05250812,47.37539673,8.55005550,496.89401245,6,9,1
1323443400.10513377,47.37539673,8.55005550,496.91485596,6,9,1
1323443400.15378928,47.37539673,8.55005550,496.93566895,6,9,1
1323443400.20571351,47.37539673,8.55005550,496.95645142,6,9,1
1323443400.25264645,47.37539673,8.55005550,496.97180176,6,9,1
1323443400.30494404,47.37539673,8.55005550,496.98153687,6,9,1
1323443400.35263038,47.37539673,8.55005455,497.00216675,6,9,1
1323443400.40552521,47.37539291,8.55005455,497.02276611,6,9,1
1323443400.45252728,47.37539291,8.55005455,497.04336548,6,9,1
1323443400.50452805,47.37539673,8.55005550,497.03396606,6,9,1
1323443400.55348849,47.37539673,8.55005550,497.05435181,6,9,1
1323443400.60554981,47.37539673,8.55005550,497.07470703,6,9,1
1323443400.65279436,47.37539291,8.55005550,497.09503174,6,9,1
1323443400.70551825,47.37539291,8.55005550,497.11535645,6,9,1
1323443400.75254488,47.37539291,8.55005550,497.11288452,6,9,1
1323443400.80548835,47.37539291,8.55005455,497.11761475,6,9,1
1323443400.85254121,47.37539291,8.55005455,497.13766479,6,9,1
1323443400.90468717,47.37539291,8.55005455,497.15765381,6,9,1
1323443400.95266700,47.37539291,8.55005455,497.17761230,6,9,1
1323443401.00167775,47.37539673,8.55005550,497.16439819,6,9,1
1323443401.05280423,47.37539673,8.55005550,497.18414307,6,9,1
1323443401.10468674,47.37539673,8.55005550,497.20388794,6,9,1
1323443401.15356612,47.37539673,8.55005550,497.22360229,6,9,1
1323443401.20550323,47.37539673,8.55005550,497.24328613,6,9,1
1323443401.25260139,47.37539673,8.55005550,497.23773193,6,9,1
1323443401.30454612,47.37539673,8.55005550,497.24490356,6,9,1
1323443401.35353208,47.37539673,8.55005550,497.26434326,6,9,1
1323443401.40457511,47.37539673,8.55005550,497.28375244,6,9,1
1323443401.45353699,47.37539673,8.55005550,497.30316162,6,9,1
1323443401.50453663,47.37539673,8.55005550,497.28585815,6,9,1
1323443401.55261922,47.37539673,8.55005550,497.30499268,6,9,1
1323443401.60552502,47.37539673,8.55005550,497.32409668,6,9,1
1323443401.65358472,47.37539673,8.55005550,497.34320068,6,9,1
1323443401.70252252,47.37539673,8.55005550,497.36224365,6,9,1
1323443401.75370407,47.37539673,8.55005550,497.36608887,6,9,1
1323443401.80544734,47.37539673,8.55005550,497.37164307,6,9,1
1323443401.85256386,47.37539673,8.55005646,497.39047241,6,9,1
1323443401.90554237,47.37539673,8.55005646,497.40927124,6,9,1
1323443401.95359063,47.37539673,8.55005646,497.42807007,6,9,1
1323443402.00548863,47.37539673,8.55005646,497.43090820,6,9,1
1323443402.05351710,47.37539673,8.55005646,497.44955444,6,9,1
1323443402.10530758,47.37539673,8.55005646,497.46817017,6,9,1
1323443402.15349197,47.37539673,8.55005646,497.48678589,6,9,1
1323443402.20708132,47.37539673,8.55005646,497.50537109,6,9,1
1323443402.25280595,47.37539673,8.55005646,497.51269531,6,9,1
1323443402.30528045,47.37539673,8.55005646,497.52413940,6,9,1
1323443402.35323238,47.37539673,8.55005646,497.54254150,6,9,1
1323443402.40550280,47.37539673,8.55005646,497.56094360,6,9,1
1323443402.45251393,47.37539673,8.55005646,497.57931519,6,9,1
1323443402.50513482,47.37539673,8.55005646,497.57360840,6,9,1
1323443402.55352354,47.37539673,8.55005646,497.59176636,6,9,1
1323443402.60524416,47.37539673,8.55005646,497.60989380,6,9,1
1323443402.65326929,47.37539673,8.55005646,497.62799072,6,9,1
1323443402.70553923,47.37539673,8.55005646,497.64608765,6,9,1
1323443402.75262666,47.37539673,8.55005646,497.66418457,6,9,1
1323443402.80551314,47.37539673,8.55005646,497.65713501,6,9,1
1323443402.85312200,47.37539673,8.55005646,497.67501831,6,9,1
1323443402.90463710,47.37539673,8.55005646,497.69287109,6,9,1
1323443402.95304394,47.37539673,8.55005646,497.71072388,7,9,1
1323443403.00457835,47.37539673,8.55005646,497.70468140,7,9,1
1323443403.06548643,47.37539673,8.55005646,497.72241211,7,9,1
1323443403.11254120,47.37539673,8.55005646,497.74362183,7,9,1
1323443403.15356588,47.37539673,8.55005646,497.76129150,7,9,1
1323443403.20550752,47.37539673,8.55005646,497.77542114,7,9,1
1323443403.25265741,47.37540054,8.55005646,497.77536011,7,9,1
1323443403.30487776,47.37539673,8.55005646,497.78625488,7,9,1
1323443403.35348582,47.37539673,8.55005646,497.80371094,7,9,1
1323443403.40565062,47.37539673,8.55005646,497.82116699,7,9,1
1323443403.45255089,47.37539673,8.55005646,497.83859253,7,9,1
1323443403.50483227,47.37539673,8.55005550,497.82888794,7,9,1
1323443403.55254698,47.37539673,8.55005550,497.84609985,7,9,1
1323443403.60548568,47.37539673,8.55005550,497.86331177,7,9,1
1323443403.65368271,47.37539673,8.55005550,497.88046265,7,9,1
1323443403.70220089,47.37539673,8.55005646,497.89758301,7,9,1
1323443403.75348663,47.37540054,8.55005550,497.89523315,7,9,1
1323443403.80565763,47.37539673,8.55005550,497.90487671,7,9,1
1323443403.85257244,47.37539673,8.55005550,497.92184448,7,9,1
1323443403.90467739,47.37539673,8.55005550,497.93875122,7,9,1
1323443403.95351100,47.37539673,8.55005550,497.95565796,7,9,1
1323443404.00553560,47.37539673,8.55005455,497.94110107,7,9,1
1323443404.05349803,47.37539673,8.55005455,497.95779419,7,9,1
1323443404.10549927,47.37539673,8.55005455,497.97448730,7,9,1
1323443404.15355587,47.37539673,8.55005550,497.99114990,7,9,1
1323443404.20454907,47.37539673,8.55005550,498.00781250,7,9,1
1323443404.25267720,47.37540054,8.55005455,498.00537109,7,9,1
1323443404.30551910,47.37540054,8.55005455,498.00863647,7,9,1
1323443404.35256529,47.37540054,8.55005455,498.02505493,7,9,1
1323443404.40548754,47.37540054,8.55005455,498.04141235,7,9,1
1323443404.45356965,47.37540054,8.55005455,498.05776978,7,9,1
1323443404.50453234,47.37540054,8.55005360,498.04223633,7,9,1
1323443404.55301905,47.37540054,8.55005360,498.05838013,7,9,1
1323443404.60457587,47.37540054,8.55005360,498.07449341,7,9,1
1323443404.66551471,47.37540054,8.55005360,498.09057617,7,9,1
1323443404.70469022,47.37540054,8.55005360,498.10986328,7,9,1
1323443404.75253677,47.37540054,8.55005360,498.12271118,7,9,1
1323443404.80550337,47.37540054,8.55005264,498.10671997,7,9,1
1323443404.85349035,47.37540054,8.55005264,498.12258911,7,9,1
1323443404.90556479,47.37540054,8.55005264,498.13842773,7,9,1
1323443404.95363092,47.37540054,8.55005264,498.15420532,7,9,1
1323443405.00533342,47.37540054,8.55005264,498.13565063,7,9,1
1323443405.05256128,47.37540054,8.55005264,498.15124512,7,9,1
1323443405.10530043,47.37540054,8.55005264,498.16677856,7,9,1
1323443405.15354705,47.37540054,8.55005264,498.18231201,7,9,1
1323443405.20551634,47.37540054,8.55005360,498.19778442,7,9,1
1323443405.25332189,47.37540054,8.55005264,498.17938232,7,9,1
1323443405.30569482,47.37540054,8.55005264,498.19058228,7,9,1
1323443405.35790682,47.37540054,8.55005264,498.20581055,7,9,1
1323443405.40527439,47.37540054,8.55005264,498.22097778,7,9,1
1323443405.45340943,47.37540054,8.55005264,498.23614502,7,9,1
1323443405.50516319,47.37540054,8.55005264,498.20843506,7,9,1
1323443405.55518198,47.37540054,8.55005264,498.22335815,7,9,1
1323443405.60548544,47.37540054,8.55005264,498.23822021,7,9,1
1323443405.65364194,47.37540054,8.55005264,498.25308228,7,9,1
1323443405.70214057,47.37540054,8.55005264,498.26791382,7,9,1
1323443405.75366163,47.37540054,8.55005264,498.28271484,7,9,1
1323443405.80551982,47.37540054,8.55005264,498.24676514,7,9,1
1323443405.85352540,47.37540054,8.55005264,498.26126099,7,9,1
1323443405.90501094,47.37540054,8.55005264,498.27575684,7,9,1
1323443405.95354223,47.37540054,8.55005264,498.29022217,7,9,1
1323443406.00548911,47.37540054,8.55005169,498.24893188,7,9,1
1323443406.05354428,47.37540054,8.55005169,498.26309204,7,9,1
1323443406.10454106,47.37540054,8.55005169,498.27722168,7,9,1
1323443406.15306330,47.37540054,8.55005169,498.29129028,7,9,1
1323443406.20457983,47.37540054,8.55005169,498.30535889,7,9,1
1323443406.25287867,47.37540054,8.55005074,498.25198364,7,9,1
1323443406.30549836,47.37540054,8.55005074,498.26568604,7,9,1
1323443406.35360074,47.37540054,8.55005074,498.27938843,7,9,1
1323443406.40551686,47.37540054,8.55005074,498.29302979,7,9,1
1323443406.45260000,47.37540054,8.55005074,498.30664062,7,9,1
1323443406.50494051,47.37540054,8.55005074,498.25573730,7,9,1
1323443406.55683637,47.37540054,8.55005074,498.26904297,7,9,1
1323443406.60471010,47.37540054,8.55005074,498.28231812,7,9,1
1323443406.65287232,47.37540054,8.55005074,498.29556274,7,9,1
1323443406.71349168,47.37540054,8.55005074,498.30880737,7,9,1
1323443406.75353241,47.37540054,8.55005074,498.26196289,7,9,1
1323443406.80548739,47.37540054,8.55005074,498.27230835,7,9,1
1323443406.86551213,47.37540054,8.55005074,498.28521729,7,9,1
1323443406.90466356,47.37540054,8.55005074,498.30068970,7,9,1
1323443406.95367765,47.37540054,8.55005074,498.31097412,6,9,1
1323443407.00568008,47.37540054,8.55004978,498.25915527,6,9,1
1323443407.05265403,47.37540054,8.55004978,498.27172852,6,9,1
1323443407.10458612,47.37540054,8.55004978,498.28427124,6,9,1
1323443407.15269566,47.37540054,8.55004978,498.29678345,6,9,1
1323443407.20550346,47.37540054,8.55004978,498.30929565,6,9,1
1323443407.25259733,47.37540054,8.55004978,498.26101685,6,9,1
1323443407.30565739,47.37540054,8.55004978,498.26824951,6,9,1
1323443407.35351586,47.37540054,8.55004978,498.28042603,6,9,1
1323443407.40463471,47.37540054,8.55004978,498.29257202,6,9,1
1323443407.45333862,47.37540054,8.55004978,498.30468750,6,9,1
1323443407.50460005,47.37540054,8.55004883,498.25469971,6,9,1
1323443407.55261183,47.37540054,8.55004883,498.26651001,6,9,1
1323443407.60551548,47.37540054,8.55004883,498.27832031,6,9,1
1323443407.65252733,47.37540054,8.55004883,498.29010010,6,9,1
1323443407.70456457,47.37540054,8.55004883,498.30184937,6,9,1
1323443407.75351095,47.37540054,8.55004787,498.25604248,6,9,1
1323443407.80546355,47.37540054,8.55004787,498.25460815,6,9,1
1323443407.85282397,47.37540054,8.55004787,498.26599121,6,9,1
1323443407.91325426,47.37540054,8.55004787,498.27731323,6,9,1
1323443407.95263696,47.37540054,8.55004787,498.29086304,6,9,1
1323443408.00525117,47.37540054,8.55004597,498.23937988,6,9,1
1323443408.05252028,47.37540054,8.55004597,498.25039673,6,9,1
1323443408.10554481,47.37540054,8.55004597,498.26138306,6,9,1
1323443408.15354681,47.37540054,8.55004692,498.27233887,6,9,1
1323443408.20461583,47.37540054,8.55004692,498.28326416,6,9,1
1323443408.25256562,47.37540054,8.55004501,498.24508667,6,9,1
1323443408.30566788,47.37540054,8.55004501,498.25579834,6,9,1
1323443408.35253239,47.37540054,8.55004501,498.26644897,6,9,1
1323443408.40550685,47.37540054,8.55004501,498.27709961,6,9,1
1323443408.45289397,47.37540054,8.55004501,498.28771973,6,9,1
1323443408.50555158,47.37540054,8.55004406,498.25106812,6,9,1
1323443408.55351973,47.37540054,8.55004406,498.26147461,6,9,1
1323443408.60451293,47.37540054,8.55004406,498.27182007,6,9,1
1323443408.65264297,47.37540054,8.55004406,498.28216553,6,9,1
1323443408.71302748,47.37540054,8.55004406,498.29248047,6,9,1
1323443408.75370765,47.37540054,8.55004406,498.25750732,6,9,1
1323443408.80502057,47.37540054,8.55004406,498.26556396,6,9,1
1323443408.85349751,47.37540054,8.55004406,498.27560425,6,9,1
1323443408.90515995,47.37540054,8.55004406,498.28561401,6,9,1
1323443408.95351410,47.37540054,8.55004406,498.29556274,5,7,1
1323443409.00247169,47.37540054,8.55004215,498.26379395,5,7,1
1323443409.05249977,47.37540054,8.55004215,498.27355957,5,7,1
1323443409.10552239,47.37540054,8.55004215,498.28326416,5,7,1
1323443409.15250635,47.37540054,8.55004215,498.29296875,5,7,1
1323443409.20550609,47.37540054,8.55004311,498.30264282,5,7,1
1323443409.26450539,47.37540054,8.55004025,498.27319336,5,7,1
1323443409.30449820,47.37540054,8.55004025,498.28457642,5,7,1
1323443409.35376048,47.37540054,8.55004025,498.29214478,5,7,1
1323443409.40550756,47.37540054,8.55004025,498.30160522,5,7,1
1323443409.45286918,47.37540054,8.55004025,498.31103516,5,7,1
1323443409.50475311,47.37540054,8.55003929,498.29049683,5,7,1
1323443409.55252719,47.37540054,8.55003929,498.29977417,5,7,1
1323443409.60552740,47.37540054,8.55003929,498.30908203,5,7,1
1323443409.65274930,47.37540054,8.55003929,498.31832886,5,7,1
1323443409.70464611,47.37540054,8.55003929,498.32757568,5,7,1
1323443409.76560116,47.37539673,8.55003738,498.29873657,5,7,1
1323443409.80565977,47.37539673,8.55003738,498.30963135,5,7,1
1323443409.85262823,47.37539673,8.55003738,498.31686401,5,7,1
1323443409.90475750,47.37539673,8.55003738,498.32589722,5,7,1
1323443409.96566916,47.37539673,8.55003738,498.33489990,5,7,1
1323443410.00159431,47.37539673,8.55003452,498.31280518,5,7,1
1323443410.06551218,47.37539673,8.55003452,498.31988525,5,7,1
1323443410.10565972,47.37539673,8.55003452,498.33050537,5,7,1
1323443410.15349483,47.37539673,8.55003452,498.33755493,5,7,1
1323443410.20552635,47.37539673,8.55003452,498.34634399,5,7,1
1323443410.25272298,47.37539673,8.55003166,498.31179810,5,7,1
1323443410.31354523,47.37539673,8.55003166,498.32034302,5,7,1
1323443410.35217595,47.37539673,8.55003166,498.33059692,5,7,1
1323443410.40548754,47.37539673,8.55003166,498.33740234,5,7,1
1323443410.45308256,47.37539673,8.55003166,498.34588623,5,7,1
1323443410.50453949,47.37539673,8.55003071,498.31890869,5,7,1
1323443410.55349255,47.37539673,8.55003071,498.32717896,5,7,1
1323443410.60505629,47.37539673,8.55002975,498.33547974,5,7,1
1323443410.65349865,47.37539673,8.55002975,498.34371948,5,7,1
1323443410.70547032,47.37539673,8.55002975,498.35195923,5,7,1
1323443410.75254965,47.37539673,8.55002880,498.33599854,5,7,1
1323443410.80550408,47.37539673,8.55002880,498.34411621,5,7,1
1323443410.86453605,47.37539673,8.55002880,498.35223389,5,7,1
1323443410.90715981,47.37539673,8.55002880,498.36190796,5,7,1
1323443410.95373702,47.37539673,8.55002880,498.36834717,1,7,1
1323443411.00471711,47.37539291,8.55002785,498.35824585,1,7,1
1323443411.05257010,47.37539291,8.55002785,498.36621094,1,7,1
1323443411.10532928,47.37539291,8.55002785,498.37417603,1,7,1
1323443411.15340781,47.37539291,8.55002785,498.38208008,1,7,1
1323443411.20559216,47.37539291,8.55002785,498.38998413,1,7,1
1323443411.25315332,47.37539291,8.55002499,498.37493896,1,7,1
1323443411.30463815,47.37539291,8.55002499,498.38275146,1,7,1
1323443411.35364389,47.37539291,8.55002499,498.39053345,1,7,1
1323443411.40451956,47.37539291,8.55002499,498.39825439,1,7,1
1323443411.45252013,47.37539291,8.55002499,498.40597534,1,7,1
1323443411.51316738,47.37538910,8.55002308,498.39147949,1,7,1
1323443411.55323195,47.37538910,8.55002308,498.40060425,1,7,1
1323443411.60548782,47.37538910,8.55002308,498.40664673,1,7,1
1323443411.65351224,47.37538910,8.55002308,498.41421509,1,7,1
1323443411.70564437,47.37538910,8.55002308,498.42172241,1,7,1
1323443411.75352383,47.37538910,8.55002117,498.41055298,1,7,1
1323443411.80464554,47.37538910,8.55002117,498.41793823,1,7,1
1323443411.85252452,47.37538910,8.55002117,498.42535400,1,7,1
1323443411.90505981,47.37538910,8.55002117,498.43270874,1,7,1
1323443411.96463275,47.37538910,8.55002117,498.44006348,1,7,1
1323443412.00552893,47.37538528,8.55001831,498.42855835,1,7,1
1323443412.05250812,47.37538528,8.55001831,498.43435669,1,7,1
1323443412.10554194,47.37538528,8.55001831,498.44155884,1,7,1
1323443412.15374017,47.37538528,8.55001831,498.44876099,1,7,1
1323443412.20563293,47.37538528,8.55001831,498.45590210,1,7,1
1323443412.25255108,47.37538910,8.55001831,498.43554688,1,7,1
1323443412.31353211,47.37538910,8.55001831,498.44253540,1,7,1
1323443412.35355425,47.37538910,8.55001831,498.45086670,1,7,1
1323443412.40198159,47.37538910,8.55001831,498.45642090,1,7,1
1323443412.45281553,47.37538528,8.55001831,498.46331787,1,7,1
1323443412.50492525,47.37538910,8.55001926,498.44467163,1,7,1
1323443412.55355406,47.37538528,8.55001831,498.45144653,1,7,1
1323443412.60550070,47.37538528,8.55001831,498.45819092,1,7,1
1323443412.65277624,47.37538528,8.55001831,498.46490479,1,7,1
1323443412.71253848,47.37538528,8.55001831,498.47161865,1,7,1
1323443412.75353479,47.37538910,8.55001736,498.45846558,1,7,1
1323443412.80548811,47.37538910,8.55001736,498.46374512,1,7,1
1323443412.85249186,47.37538910,8.55001736,498.47033691,1,7,1
1323443412.90470481,47.37538910,8.55001736,498.47686768,1,7,1
1323443412.95368838,47.37538910,8.55001736,498.48339844,0,7,1
1323443413.00568604,47.37538528,8.55001640,498.46109009,0,7,1
1323443413.05387592,47.37538528,8.55001640,498.46743774,0,7,1
1323443413.10550714,47.37538528,8.55001640,498.47372437,0,7,1
1323443413.15365887,47.37538528,8.55001545,498.48004150,0,7,1
1323443413.20150995,47.37538528,8.55001545,498.48632812,0,7,1
1323443413.25250483,47.37538528,8.55001450,498.46734619,0,7,1
1323443413.30458236,47.37538528,8.55001450,498.47348022,0,7,1
1323443413.36452436,47.37538528,8.55001450,498.47961426,0,7,1
1323443413.40859962,47.37538528,8.55001450,498.48693848,0,7,1
1323443413.45254421,47.37538528,8.55001450,498.49182129,0,7,1
1323443413.50449109,47.37538528,8.55001354,498.48184204,0,7,1
1323443413.55262589,47.37538528,8.55001354,498.48785400,0,7,1
1323443413.60551476,47.37538528,8.55001354,498.49386597,0,7,1
1323443413.66537189,47.37538528,8.55001354,498.49981689,0,7,1
1323443413.70551038,47.37538528,8.55001354,498.50692749,0,7,1
1323443413.75352454,47.37538528,8.55001259,498.50262451,0,7,1
1323443413.80457926,47.37538528,8.55001259,498.50851440,0,7,1
1323443413.85331798,47.37538528,8.55001259,498.51434326,0,7,1
1323443413.91251040,47.37538528,8.55001259,498.52017212,0,7,1
1323443413.95352578,47.37538528,8.55001259,498.52713013,0,7,1
1323443414.00551987,47.37538147,8.55001163,498.53009033,0,7,1
1323443414.05249357,47.37538147,8.55001163,498.53588867,0,7,1
1323443414.10534883,47.37538147,8.55001163,498.54162598,0,7,1
1323443414.15376353,47.37538147,8.55001163,498.54736328,0,7,1
1323443414.20864105,47.37538147,8.55001163,498.55307007,0,7,1
1323443414.25315642,47.37538147,8.55001163,498.56146240,0,7,1
1323443414.30551171,47.37538147,8.55001163,498.56713867,0,7,1
1323443414.35341001,47.37538147,8.55001163,498.57275391,0,7,1
1323443414.40592408,47.37538147,8.55001163,498.57833862,0,7,1
1323443414.45317912,47.37538147,8.55001163,498.58392334,0,7,1
1323443414.50479054,47.37538147,8.55001068,498.60293579,0,7,1
1323443414.55354476,47.37538147,8.55001068,498.60852051,0,7,1
1323443414.60513210,47.37538147,8.55001068,498.61413574,0,7,1
1323443414.65250659,47.37538147,8.55001068,498.61968994,0,7,1
1323443414.70509672,47.37538147,8.55001068,498.62527466,0,7,1
1323443414.75253558,47.37537766,8.55000973,498.65637207,0,7,1
1323443414.80551672,47.37537766,8.55000973,498.66201782,0,7,1
1323443414.85251522,47.37537766,8.55000973,498.66766357,0,7,1
1323443414.90466976,47.37537766,8.55000973,498.67324829,0,7,1
1323443414.96497393,47.37537766,8.55000973,498.67880249,0,7,1
1323443415.00450850,47.37537766,8.55000877,498.70465088,0,7,1
1323443415.05259418,47.37537766,8.55000877,498.70913696,0,7,1
1323443415.11258006,47.37537384,8.55000877,498.71469116,0,7,1
1323443415.15253997,47.37537384,8.55000877,498.72131348,0,7,1
1323443415.20549750,47.37537384,8.55000877,498.72573853,0,7,1
1323443415.25283313,47.37537384,8.55000782,498.75433350,0,7,1
1323443415.30565643,47.37537384,8.55000782,498.75988770,0,7,1
1323443415.35368848,47.37537384,8.55000782,498.76544189,0,7,1
